Location: Gensac
(43.2177°N, 1.1313°E)
Time: 06:23:07
(UTC+00:00)

Cosmos 2333 Rocket - Pass Details

Date: 08 December 2025
Orbit: 837 x 865 km, 70.8° (Epoch: 13 January)

Event Time Altitude Azimuth Distance (km) Brightness Sun altitude
Exits shadow 04:33:58 11° 1° (N) 2,415 4.5 -28.4°
Maximum altitude 04:38:03 22° 49° (NE) 1,785 4.3 -27.7°
Drops below altitude 10° 04:42:29 10° 100° (E) 2,497 5.7 -26.9°
Sets 04:45:29 0° 115° (ESE) 3,426 6.5 -26.4°
